Regional Weather Roundup
Issued by NWS Goodland, KS

Home | Current Version | Previous Version | Graphics & Text | Print | Product List | Glossary On
Versions: 1 2 3 4 5 6 7 8 9 10 11 12 13 14 15 16 17 18 19 20 21 22 23 24 25 26 27 28 29 30 31 32 33 34 35 36 37 38 39 40 41 42 43 44 45 46 47 48 49 50
000
ASUS43 KGLD 280459
RWRGLD

GOODLAND FORECAST AREA HOURLY WEATHER ROUNDUP
NATIONAL WEATHER SERVICE GOODLAND KS
1100 PM MDT WED AUG 27 2014

...OFFICIAL OBSERVATIONS...

CITY           SKY/WX    TMP DP  RH WIND       PRES   REMARKS
GOODLAND KS    PTCLDY    67  66  97 S13       30.00F
HILL CITY KS   MOCLDY    67  65  93 E6        30.00S
IMPERIAL NEB   TSTM      61  59  93 N14       30.09R FOG
MCCOOK NEB     CLOUDY    68  67  96 SE9       29.99F
AKRON CO       LGT RAIN  60  58  92 W8        30.15R
BURLINGTON CO  MOCLDY    68  64  87 SW6       30.04R
LIMON CO       LGT RAIN  59  55  87 N23G31    30.15S
$$

...UNOFFICIAL OBSERVATIONS...

CITY           SKY/WX    TMP DP  RH WIND       PRES   REMARKS
COLBY KS       PTCLDY    66  66 100 E9        30.01F FOG
GOVE KS          N/A     71  32  23 CALM        N/A
NORTON KS      CLOUDY    66  64  94 E9        29.98F
SHARON SPRINGS   N/A     70  65  84 S13G22      N/A
WAKEENEY KS      N/A     69  65  87 MISG        N/A
KIT CARSON CO    N/A     71  59  66 MISG        N/A
YUMA CO          N/A     60  60 100 CALM        N/A
$$



USA.gov is the U.S. government's official web portal to all federal, state and local government web resources and services.